,,,PA_Meas_PMT16A,,PR_Meas_QMR101_102,,RH_Meas_QMH101,,SR_Meas_QMS101,,TA_Meas_QMH101,,GenWind,,GenWind,
date,time,status,PA,status,PR,status,RH,status,SR,status,TA,status,DirAvg,status,SpdAvg,
2011-12-27, 00:00:04,VALID,999.83,VALID,0,VALID,92.3794,VALID,0,VALID,24.8917,VALID,226,VALID,0.398047,
2011-12-27, 00:01:04,VALID,999.815,VALID,0,VALID,92.3413,VALID,0,VALID,24.8917,VALID,226,VALID,0.499219,
2011-12-27, 00:02:04,VALID,999.812,VALID,0,VALID,92.2345,VALID,0,VALID,24.8917,VALID,261,VALID,1.5957,
2011-12-27, 00:03:04,VALID,999.777,VALID,0,VALID,92.1353,VALID,0,VALID,24.8722,VALID,315,VALID,1.4793,
2011-12-27, 00:04:04,VALID,999.797,VALID,0,VALID,92.0437,VALID,0,VALID,24.8917,VALID,299,VALID,0.599609,
2011-12-27, 00:05:04,VALID,999.764,VALID,0,VALID,91.9674,VALID,0,VALID,24.8722,VALID,289,VALID,1.00859,
2011-12-27, 00:06:04,VALID,999.765,VALID,0,VALID,91.8301,VALID,0,VALID,24.8722,VALID,256,VALID,0.583984,
2011-12-27, 00:07:04,VALID,999.762,VALID,0,VALID,91.7462,VALID,0,VALID,24.8722,VALID,290,VALID,0.799219,
2011-12-27, 00:08:04,VALID,999.77,VALID,0,VALID,91.7004,VALID,0,VALID,24.8313,VALID,259,VALID,0.809375,
2011-12-27, 00:09:04,VALID,999.78,VALID,0,VALID,91.5707,VALID,0,VALID,24.8527,VALID,278,VALID,0.637109,
2011-12-27, 00:10:04,VALID,999.754,VALID,0,VALID,91.5402,VALID,0,VALID,24.8332,VALID,262,VALID,0.564453,
2011-12-27, 00:11:04,VALID,999.758,VALID,0,VALID,91.5249,VALID,0,VALID,24.8332,VALID,285,VALID,0.392188,
2011-12-27, 00:12:04,VALID,999.774,VALID,0,VALID,91.5326,VALID,0,VALID,24.8117,VALID,351,VALID,0.563672,
2011-12-27, 00:13:04,VALID,999.748,VALID,0,VALID,91.5783,VALID,0,VALID,24.7922,VALID,330,VALID,0.762109,
2011-12-27, 00:14:04,VALID,999.755,VALID,0,VALID,91.5402,VALID,0,VALID,24.7922,VALID,334,VALID,1.31836,
2011-12-27, 00:15:04,VALID,999.742,VALID,0,VALID,91.5554,VALID,0,VALID,24.7922,VALID,316,VALID,1.06289,
2011-12-27, 00:16:04,VALID,999.73,VALID,0,VALID,91.6012,VALID,0,VALID,24.7941,VALID,352,VALID,1.0418,
2011-12-27, 00:17:04,VALID,999.764,VALID,0,VALID,91.5097,VALID,0,VALID,24.7746,VALID,336,VALID,0.974609,
2011-12-27, 00:18:04,VALID,999.749,VALID,0,VALID,91.4868,VALID,0,VALID,24.7746,VALID,284,VALID,0.654297,
2011-12-27, 00:19:04,VALID,999.698,VALID,0,VALID,91.3342,VALID,0,VALID,24.7337,VALID,301,VALID,0.725781,
2011-12-27, 00:20:04,VALID,999.695,VALID,0,VALID,91.2731,VALID,0,VALID,24.7551,VALID,309,VALID,1.40977,
2011-12-27, 00:21:04,VALID,999.678,VALID,0,VALID,91.2503,VALID,0,VALID,24.7337,VALID,235,VALID,1.35781,
2011-12-27, 00:22:04,VALID,999.612,VALID,0,VALID,91.0748,VALID,0,VALID,24.7551,VALID,245,VALID,0.942578,
2011-12-27, 00:23:04,VALID,999.582,VALID,0,VALID,91.1053,VALID,0,VALID,24.7356,VALID,262,VALID,0.349609,
2011-12-27, 00:24:04,VALID,999.564,VALID,0,VALID,91.1206,VALID,0,VALID,24.7356,VALID,223,VALID,0.695313,
2011-12-27, 00:25:04,VALID,999.54,VALID,0,VALID,91.1358,VALID,0,VALID,24.6946,VALID,239,VALID,0.346094,
2011-12-27, 00:26:04,VALID,999.5,VALID,0,VALID,90.9985,VALID,0,VALID,24.6965,VALID,232,VALID,0.569922,
2011-12-27, 00:27:04,VALID,999.525,VALID,0,VALID,91.0061,VALID,0,VALID,24.6965,VALID,234,VALID,0.794141,
2011-12-27, 00:28:04,VALID,999.506,VALID,0,VALID,90.8917,VALID,0,VALID,24.677,VALID,255,VALID,0.808984,
2011-12-27, 00:29:04,VALID,999.52,VALID,0,VALID,90.8611,VALID,0,VALID,24.677,VALID,207,VALID,0.472266,
2011-12-27, 00:30:04,VALID,999.507,VALID,0,VALID,90.884,VALID,0,VALID,24.6361,VALID,270,VALID,0.346875,
2011-12-27, 00:31:04,VALID,999.527,VALID,0,VALID,90.7849,VALID,0,VALID,24.6556,VALID,292,VALID,0.619531,
2011-12-27, 00:32:04,VALID,999.549,VALID,0,VALID,90.7162,VALID,0,VALID,24.6556,VALID,262,VALID,1.21758,
2011-12-27, 00:33:04,VALID,999.548,VALID,0,VALID,90.6399,VALID,0,VALID,24.6556,VALID,307,VALID,1.35,
2011-12-27, 00:34:04,VALID,999.56,VALID,0,VALID,90.6933,VALID,0,VALID,24.677,VALID,327,VALID,1.37188,
2011-12-27, 00:35:04,VALID,999.54,VALID,0,VALID,90.556,VALID,0,VALID,24.677,VALID,320,VALID,1.02188,
2011-12-27, 00:36:04,VALID,999.517,VALID,0,VALID,90.556,VALID,0,VALID,24.677,VALID,299,VALID,0.508203,
2011-12-27, 00:37:04,VALID,999.513,VALID,0,VALID,90.6551,VALID,0,VALID,24.6556,VALID,323,VALID,0.219141,
2011-12-27, 00:38:04,VALID,999.507,VALID,0,VALID,90.823,VALID,0,VALID,24.6575,VALID,323,VALID,0.481641,
2011-12-27, 00:39:04,VALID,999.514,VALID,0,VALID,90.8764,VALID,0,VALID,24.5971,VALID,323,VALID,0.0828125,
2011-12-27, 00:40:04,VALID,999.489,VALID,0,VALID,90.9451,VALID,0,VALID,24.6184,VALID,323,VALID,0.238672,
2011-12-27, 00:41:04,VALID,999.458,VALID,0,VALID,91.0443,VALID,0,VALID,24.5775,VALID,323,VALID,0.169141,
2011-12-27, 00:42:04,VALID,999.43,VALID,0,VALID,91.1816,VALID,0,VALID,24.5775,VALID,323,VALID,0,
2011-12-27, 00:43:04,VALID,999.424,VALID,0,VALID,91.2426,VALID,0,VALID,24.5385,VALID,323,VALID,0.484375,
2011-12-27, 00:44:04,VALID,999.434,VALID,0,VALID,91.2884,VALID,0,VALID,24.5599,VALID,229,VALID,0.4875,
2011-12-27, 00:45:04,VALID,999.415,VALID,0,VALID,91.3266,VALID,0,VALID,24.558,VALID,213,VALID,0.299609,
2011-12-27, 00:46:04,VALID,999.386,VALID,0,VALID,91.3647,VALID,0,VALID,24.5989,VALID,213,VALID,0.708203,
2011-12-27, 00:47:04,VALID,999.331,VALID,0,VALID,91.4257,VALID,0,VALID,24.5775,VALID,185,VALID,0.923828,
2011-12-27, 00:48:04,VALID,999.344,VALID,0,VALID,91.4563,VALID,0,VALID,24.5971,VALID,215,VALID,1.08984,
2011-12-27, 00:49:04,VALID,999.294,VALID,0,VALID,91.4334,VALID,0,VALID,24.5971,VALID,232,VALID,0.804688,
2011-12-27, 00:50:04,VALID,999.282,VALID,0,VALID,91.3876,VALID,0,VALID,24.638,VALID,229,VALID,0.577344,
2011-12-27, 00:51:04,VALID,999.279,VALID,0,VALID,91.3494,VALID,0,VALID,24.6166,VALID,243,VALID,0.391016,
2011-12-27, 00:52:04,VALID,999.298,VALID,0,VALID,91.3571,VALID,0,VALID,24.6361,VALID,274,VALID,0.979297,
2011-12-27, 00:53:04,VALID,999.286,VALID,0,VALID,91.3418,VALID,0,VALID,24.677,VALID,242,VALID,0.611328,
2011-12-27, 00:54:04,VALID,999.292,VALID,0,VALID,91.3418,VALID,0,VALID,24.6556,VALID,318,VALID,0.689453,
2011-12-27, 00:55:04,VALID,999.293,VALID,0,VALID,91.3266,VALID,0,VALID,24.6556,VALID,255,VALID,0.466406,
2011-12-27, 00:56:04,VALID,999.315,VALID,0,VALID,91.3647,VALID,0,VALID,24.6751,VALID,300,VALID,0.381641,
2011-12-27, 00:57:04,VALID,999.251,VALID,0,VALID,91.4181,VALID,0,VALID,24.6556,VALID,283,VALID,0.00898437,
2011-12-27, 00:58:04,VALID,999.243,VALID,0,VALID,91.441,VALID,0,VALID,24.6556,VALID,283,VALID,0.0277344,
2011-12-27, 00:59:04,VALID,999.22,VALID,0,VALID,91.4639,VALID,0,VALID,24.6556,VALID,283,VALID,0.235938,
2011-12-27, 01:00:04,VALID,999.175,VALID,0,VALID,91.5173,VALID,0,VALID,24.638,VALID,283,VALID,0.318359,
2011-12-27, 01:01:04,VALID,999.142,VALID,0,VALID,91.586,VALID,0,VALID,24.638,VALID,283,VALID,0,
2011-12-27, 01:02:04,VALID,999.132,VALID,0,VALID,91.6699,VALID,0,VALID,24.6166,VALID,283,VALID,0,
2011-12-27, 01:03:04,VALID,999.119,VALID,0,VALID,91.6775,VALID,0,VALID,24.6184,VALID,283,VALID,0,
2011-12-27, 01:04:04,VALID,999.109,VALID,0,VALID,91.7462,VALID,0,VALID,24.5989,VALID,283,VALID,0,
2011-12-27, 01:05:04,VALID,999.105,VALID,0,VALID,91.8225,VALID,0,VALID,24.5989,VALID,283,VALID,0,
2011-12-27, 01:06:04,VALID,999.141,VALID,0,VALID,91.8988,VALID,0,VALID,24.558,VALID,283,VALID,0,
2011-12-27, 01:07:04,VALID,999.116,VALID,0,VALID,91.9522,VALID,0,VALID,24.5794,VALID,301,VALID,0,
2011-12-27, 01:08:04,VALID,999.109,VALID,0,VALID,91.9674,VALID,0,VALID,24.558,VALID,354,VALID,0,
2011-12-27, 01:09:04,VALID,999.088,VALID,0,VALID,91.9827,VALID,0,VALID,24.558,VALID,354,VALID,0,
2011-12-27, 01:10:04,VALID,999.107,VALID,0,VALID,92.0132,VALID,0,VALID,24.5794,VALID,354,VALID,0,
2011-12-27, 01:11:04,VALID,999.095,VALID,0,VALID,92.0361,VALID,0,VALID,24.5599,VALID,354,VALID,0,
2011-12-27, 01:12:04,VALID,999.058,VALID,0,VALID,92.0514,VALID,0,VALID,24.5599,VALID,354,VALID,0,
2011-12-27, 01:13:04,VALID,999.065,VALID,0,VALID,92.1124,VALID,0,VALID,24.5599,VALID,354,VALID,0,
2011-12-27, 01:14:04,VALID,999.046,VALID,0,VALID,92.12,VALID,0,VALID,24.5794,VALID,354,VALID,0,
2011-12-27, 01:15:04,VALID,999.008,VALID,0,VALID,92.12,VALID,0,VALID,24.5794,VALID,359,VALID,0,
2011-12-27, 01:16:04,VALID,998.99,VALID,0,VALID,92.1506,VALID,0,VALID,24.5989,VALID,40,VALID,0,
2011-12-27, 01:17:04,VALID,998.988,VALID,0,VALID,92.1887,VALID,0,VALID,24.5775,VALID,74,VALID,0,
2011-12-27, 01:18:04,VALID,998.954,VALID,0,VALID,92.2268,VALID,0,VALID,24.5989,VALID,74,VALID,0,
2011-12-27, 01:19:04,VALID,998.93,VALID,0,VALID,92.2726,VALID,0,VALID,24.6166,VALID,74,VALID,0,
2011-12-27, 01:20:04,VALID,998.886,VALID,0,VALID,92.2879,VALID,0,VALID,24.638,VALID,74,VALID,0,
2011-12-27, 01:21:04,VALID,998.895,VALID,0,VALID,92.265,VALID,0,VALID,24.6361,VALID,74,VALID,0,
2011-12-27, 01:22:04,VALID,998.858,VALID,0,VALID,92.2726,VALID,0,VALID,24.6575,VALID,74,VALID,0,
2011-12-27, 01:23:04,VALID,998.839,VALID,0,VALID,92.2421,VALID,0,VALID,24.6361,VALID,74,VALID,0,
2011-12-27, 01:24:04,VALID,998.844,VALID,0,VALID,92.2268,VALID,0,VALID,24.638,VALID,74,VALID,0,
2011-12-27, 01:25:04,VALID,998.845,VALID,0,VALID,92.265,VALID,0,VALID,24.6166,VALID,100,VALID,0,
2011-12-27, 01:26:04,VALID,998.848,VALID,0,VALID,92.3337,VALID,0,VALID,24.6361,VALID,154,VALID,0.842578,
2011-12-27, 01:27:04,VALID,998.794,VALID,0,VALID,92.3413,VALID,0,VALID,24.6166,VALID,133,VALID,1.15898,
2011-12-27, 01:28:04,VALID,998.796,VALID,0,VALID,92.41,VALID,0,VALID,24.5971,VALID,134,VALID,1.03437,
2011-12-27, 01:29:04,VALID,998.747,VALID,0,VALID,92.5091,VALID,0,VALID,24.5971,VALID,144,VALID,0.997266,
2011-12-27, 01:30:04,VALID,998.761,VALID,0,VALID,92.5778,VALID,0,VALID,24.5989,VALID,144,VALID,0.540625,
2011-12-27, 01:31:04,VALID,998.746,VALID,0,VALID,92.6312,VALID,0,VALID,24.5775,VALID,174,VALID,1.1,
2011-12-27, 01:32:04,VALID,998.737,VALID,0,VALID,92.7075,VALID,0,VALID,24.6184,VALID,201,VALID,0.675,
2011-12-27, 01:33:04,VALID,998.742,VALID,0,VALID,92.7228,VALID,0,VALID,24.6166,VALID,238,VALID,0.332031,
2011-12-27, 01:34:04,VALID,998.738,VALID,0,VALID,92.6846,VALID,0,VALID,24.638,VALID,238,VALID,0,
2011-12-27, 01:35:04,VALID,998.737,VALID,0,VALID,92.6617,VALID,0,VALID,24.6166,VALID,238,VALID,0,
2011-12-27, 01:36:04,VALID,998.708,VALID,0,VALID,92.6541,VALID,0,VALID,24.6166,VALID,238,VALID,0.0574219,
2011-12-27, 01:37:04,VALID,998.716,VALID,0,VALID,92.616,VALID,0,VALID,24.6166,VALID,233,VALID,0.326172,
2011-12-27, 01:38:04,VALID,998.711,VALID,0,VALID,92.6007,VALID,0,VALID,24.638,VALID,218,VALID,0.467969,
2011-12-27, 01:39:04,VALID,998.663,VALID,0,VALID,92.5549,VALID,0,VALID,24.6575,VALID,210,VALID,0.378516,
2011-12-27, 01:40:04,VALID,998.665,VALID,0,VALID,92.5091,VALID,0,VALID,24.6166,VALID,210,VALID,0,
2011-12-27, 01:41:04,VALID,998.623,VALID,0,VALID,92.5091,VALID,0,VALID,24.6166,VALID,210,VALID,0,
2011-12-27, 01:42:04,VALID,998.63,VALID,0,VALID,92.4939,VALID,0,VALID,24.6184,VALID,210,VALID,0,
2011-12-27, 01:43:04,VALID,998.559,VALID,0,VALID,92.532,VALID,0,VALID,24.5971,VALID,210,VALID,0,
2011-12-27, 01:44:04,VALID,998.575,VALID,0,VALID,92.5015,VALID,0.104696,VALID,24.5971,VALID,210,VALID,0,
2011-12-27, 01:45:04,VALID,998.535,VALID,0,VALID,92.5244,VALID,0,VALID,24.5989,VALID,210,VALID,0.386328,
2011-12-27, 01:46:04,VALID,998.541,VALID,0,VALID,92.532,VALID,0,VALID,24.5971,VALID,210,VALID,0.405859,
2011-12-27, 01:47:04,VALID,998.559,VALID,0,VALID,92.532,VALID,0,VALID,24.6184,VALID,210,VALID,0.456641,
2011-12-27, 01:48:04,VALID,998.506,VALID,0,VALID,92.5168,VALID,0,VALID,24.6166,VALID,210,VALID,0.455469,
2011-12-27, 01:49:04,VALID,998.527,VALID,0,VALID,92.4939,VALID,0,VALID,24.6184,VALID,210,VALID,0.00195313,
2011-12-27, 01:50:04,VALID,998.531,VALID,0,VALID,92.4863,VALID,0,VALID,24.6361,VALID,210,VALID,0,
2011-12-27, 01:51:04,VALID,998.524,VALID,0,VALID,92.4634,VALID,0,VALID,24.6575,VALID,210,VALID,0,
2011-12-27, 01:52:04,VALID,998.523,VALID,0,VALID,92.4634,VALID,0,VALID,24.638,VALID,210,VALID,0,
2011-12-27, 01:53:04,VALID,998.523,VALID,0,VALID,92.4786,VALID,0,VALID,24.6166,VALID,210,VALID,0,
2011-12-27, 01:54:04,VALID,998.53,VALID,0,VALID,92.5015,VALID,0,VALID,24.5971,VALID,210,VALID,0,
2011-12-27, 01:55:04,VALID,998.512,VALID,0,VALID,92.4939,VALID,0,VALID,24.5989,VALID,210,VALID,0.246484,
2011-12-27, 01:56:04,VALID,998.536,VALID,0,VALID,92.5397,VALID,0,VALID,24.558,VALID,210,VALID,0.519922,
2011-12-27, 01:57:04,VALID,998.552,VALID,0,VALID,92.5244,VALID,0,VALID,24.5404,VALID,8,VALID,1.25977,
2011-12-27, 01:58:04,VALID,998.559,VALID,0,VALID,92.5549,VALID,0,VALID,24.5013,VALID,7,VALID,1.20352,
2011-12-27, 01:59:04,VALID,998.544,VALID,0,VALID,92.6236,VALID,0,VALID,24.4019,VALID,33,VALID,1.83477,
2011-12-27, 02:00:04,VALID,998.536,VALID,0,VALID,92.7533,VALID,0,VALID,24.3647,VALID,41,VALID,1.54414,
2011-12-27, 02:01:04,VALID,998.509,VALID,0,VALID,92.9059,VALID,0,VALID,24.3238,VALID,48,VALID,1.29727,
2011-12-27, 02:02:04,VALID,998.487,VALID,0,VALID,93.0737,VALID,0,VALID,24.3062,VALID,56,VALID,1.53281,
2011-12-27, 02:03:04,VALID,998.457,VALID,0,VALID,93.15,VALID,0,VALID,24.3062,VALID,50,VALID,0.903906,
2011-12-27, 02:04:04,VALID,998.457,VALID,0,VALID,93.2416,VALID,0,VALID,24.2671,VALID,51,VALID,0.982813,
2011-12-27, 02:05:04,VALID,998.44,VALID,0,VALID,93.3103,VALID,0,VALID,24.2671,VALID,57,VALID,0.699609,
2011-12-27, 02:06:04,VALID,998.42,VALID,0,VALID,93.3484,VALID,0,VALID,24.2476,VALID,63,VALID,0.866016,
2011-12-27, 02:07:04,VALID,998.432,VALID,0,VALID,93.4247,VALID,0,VALID,24.2476,VALID,68,VALID,0.668359,
2011-12-27, 02:08:04,VALID,998.409,VALID,0,VALID,93.4552,VALID,0,VALID,24.2281,VALID,77,VALID,0.716797,
2011-12-27, 02:09:04,VALID,998.434,VALID,0,VALID,93.4552,VALID,0,VALID,24.2067,VALID,77,VALID,0.743359,
2011-12-27, 02:10:04,VALID,998.45,VALID,0,VALID,93.4781,VALID,0,VALID,24.2281,VALID,71,VALID,0.505859,
2011-12-27, 02:11:04,VALID,998.445,VALID,0,VALID,93.501,VALID,0,VALID,24.1872,VALID,71,VALID,0.106641,
2011-12-27, 02:12:04,VALID,998.475,VALID,0,VALID,93.5086,VALID,0,VALID,24.1891,VALID,71,VALID,0.123438,
2011-12-27, 02:13:04,VALID,998.48,VALID,0,VALID,93.5163,VALID,0,VALID,24.1891,VALID,71,VALID,0,
2011-12-27, 02:14:04,VALID,998.499,VALID,0,VALID,93.5163,VALID,0,VALID,24.1482,VALID,71,VALID,0,
2011-12-27, 02:15:04,VALID,998.488,VALID,0,VALID,93.5315,VALID,0,VALID,24.1482,VALID,71,VALID,0,
2011-12-27, 02:16:04,VALID,998.498,VALID,0,VALID,93.5544,VALID,0,VALID,24.1696,VALID,71,VALID,0,
2011-12-27, 02:17:04,VALID,998.485,VALID,0,VALID,93.5773,VALID,0,VALID,24.1696,VALID,71,VALID,0,
2011-12-27, 02:18:04,VALID,998.469,VALID,0,VALID,93.6078,VALID,0,VALID,24.1482,VALID,71,VALID,0,
2011-12-27, 02:19:04,VALID,998.44,VALID,0,VALID,93.6231,VALID,0,VALID,24.1696,VALID,69,VALID,0.484766,
2011-12-27, 02:20:04,VALID,998.444,VALID,0,VALID,93.6231,VALID,0,VALID,24.1482,VALID,69,VALID,0.0957031,
2011-12-27, 02:21:04,VALID,998.408,VALID,0,VALID,93.6612,VALID,0,VALID,24.1696,VALID,69,VALID,0,
2011-12-27, 02:22:04,VALID,998.376,VALID,0,VALID,93.6765,VALID,0,VALID,24.1482,VALID,69,VALID,0.0789063,
2011-12-27, 02:23:04,VALID,998.385,VALID,0,VALID,93.707,VALID,0,VALID,24.15,VALID,69,VALID,0,
2011-12-27, 02:24:04,VALID,998.393,VALID,0,VALID,93.7223,VALID,0,VALID,24.1696,VALID,69,VALID,0,
2011-12-27, 02:25:04,VALID,998.389,VALID,0,VALID,93.7375,VALID,0,VALID,24.1482,VALID,69,VALID,0,
2011-12-27, 02:26:04,VALID,998.413,VALID,0,VALID,93.7375,VALID,0,VALID,24.1677,VALID,68,VALID,0,
2011-12-27, 02:27:04,VALID,998.37,VALID,0,VALID,93.768,VALID,0,VALID,24.1696,VALID,42,VALID,0.212891,
2011-12-27, 02:28:04,VALID,998.354,VALID,0,VALID,93.7833,VALID,0,VALID,24.1677,VALID,38,VALID,1.05781,
2011-12-27, 02:29:04,VALID,998.354,VALID,0,VALID,93.7909,VALID,0,VALID,24.1482,VALID,38,VALID,0.93125,
2011-12-27, 02:30:04,VALID,998.364,VALID,0,VALID,93.8062,VALID,0,VALID,24.1482,VALID,34,VALID,0.660547,
2011-12-27, 02:31:04,VALID,998.374,VALID,0,VALID,93.8138,VALID,0,VALID,24.1696,VALID,18,VALID,0.167578,
2011-12-27, 02:32:04,VALID,998.37,VALID,0,VALID,93.8291,VALID,0,VALID,24.1696,VALID,297,VALID,0.919141,
2011-12-27, 02:33:04,VALID,998.364,VALID,0,VALID,93.8367,VALID,0,VALID,24.1891,VALID,296,VALID,0.497656,
2011-12-27, 02:34:04,VALID,998.378,VALID,0,VALID,93.852,VALID,0,VALID,24.2086,VALID,296,VALID,0.251563,
2011-12-27, 02:35:04,VALID,998.407,VALID,0,VALID,93.8443,VALID,0,VALID,24.1872,VALID,296,VALID,0.0207031,
2011-12-27, 02:36:04,VALID,998.402,VALID,0,VALID,93.8748,VALID,0,VALID,24.2067,VALID,296,VALID,0,
2011-12-27, 02:37:04,VALID,998.407,VALID,0,VALID,93.8672,VALID,0,VALID,24.2281,VALID,296,VALID,0.310156,
2011-12-27, 02:38:04,VALID,998.405,VALID,0,VALID,93.8672,VALID,0,VALID,24.2263,VALID,296,VALID,0,
2011-12-27, 02:39:04,VALID,998.419,VALID,0,VALID,93.8596,VALID,0,VALID,24.2263,VALID,296,VALID,0.009375,
2011-12-27, 02:40:04,VALID,998.416,VALID,0,VALID,93.8214,VALID,0,VALID,24.2671,VALID,296,VALID,0.385547,
2011-12-27, 02:41:04,VALID,998.422,VALID,0,VALID,93.8367,VALID,0,VALID,24.2653,VALID,296,VALID,0.166016,
2011-12-27, 02:42:04,VALID,998.386,VALID,0,VALID,93.8138,VALID,0,VALID,24.3062,VALID,288,VALID,0.132422,
2011-12-27, 02:43:04,VALID,998.345,VALID,0,VALID,93.7757,VALID,0,VALID,24.3257,VALID,190,VALID,1.75117,
2011-12-27, 02:44:04,VALID,998.36,VALID,0,VALID,93.646,VALID,0,VALID,24.4019,VALID,297,VALID,1.45156,
2011-12-27, 02:45:04,VALID,998.33,VALID,0,VALID,93.5239,VALID,0,VALID,24.4818,VALID,19,VALID,1.17305,
2011-12-27, 02:46:04,VALID,998.376,VALID,0,VALID,93.2797,VALID,0,VALID,24.5013,VALID,229,VALID,1.05859,
2011-12-27, 02:47:04,VALID,998.368,VALID,0,VALID,93.1119,VALID,0,VALID,24.5013,VALID,240,VALID,0.695313,
2011-12-27, 02:48:04,VALID,998.432,VALID,0,VALID,92.9822,VALID,0,VALID,24.48,VALID,266,VALID,0.661719,
2011-12-27, 02:49:04,VALID,998.425,VALID,0,VALID,92.8983,VALID,0,VALID,24.4818,VALID,256,VALID,1.1918,
2011-12-27, 02:50:04,VALID,998.436,VALID,0,VALID,92.7533,VALID,0,VALID,24.5013,VALID,317,VALID,0.766406,
2011-12-27, 02:51:04,VALID,998.459,VALID,0,VALID,92.5931,VALID,0,VALID,24.5209,VALID,310,VALID,0.813672,
2011-12-27, 02:52:04,VALID,998.417,VALID,0,VALID,92.4863,VALID,0,VALID,24.5404,VALID,294,VALID,0.352344,
2011-12-27, 02:53:04,VALID,998.426,VALID,0,VALID,92.3718,VALID,0,VALID,24.4995,VALID,282,VALID,0.545313,
2011-12-27, 02:54:04,VALID,998.42,VALID,0,VALID,92.2803,VALID,0,VALID,24.4995,VALID,282,VALID,0,
2011-12-27, 02:55:04,VALID,998.43,VALID,0,VALID,92.2497,VALID,0,VALID,24.5013,VALID,282,VALID,0,
2011-12-27, 02:56:04,VALID,998.433,VALID,0,VALID,92.2421,VALID,0,VALID,24.5209,VALID,282,VALID,0,
2011-12-27, 02:57:04,VALID,998.453,VALID,0,VALID,92.2803,VALID,0,VALID,24.48,VALID,282,VALID,0,
2011-12-27, 02:58:04,VALID,998.467,VALID,0,VALID,92.3184,VALID,0,VALID,24.4818,VALID,282,VALID,0,
2011-12-27, 02:59:04,VALID,998.461,VALID,0,VALID,92.2345,VALID,0,VALID,24.4818,VALID,157,VALID,0.190234,
2011-12-27, 03:00:04,VALID,998.489,VALID,0,VALID,92.1277,VALID,0,VALID,24.4604,VALID,157,VALID,0,
2011-12-27, 03:01:04,VALID,998.518,VALID,0,VALID,92.1124,VALID,0,VALID,24.4604,VALID,157,VALID,0,
2011-12-27, 03:02:04,VALID,998.501,VALID,0,VALID,92.0514,VALID,0,VALID,24.4818,VALID,158,VALID,0,
2011-12-27, 03:03:04,VALID,998.503,VALID,0,VALID,91.8911,VALID,0,VALID,24.5013,VALID,194,VALID,0.0171875,
2011-12-27, 03:04:04,VALID,998.525,VALID,0,VALID,91.7996,VALID,0,VALID,24.5013,VALID,194,VALID,0,
2011-12-27, 03:05:04,VALID,998.536,VALID,0,VALID,91.708,VALID,0,VALID,24.48,VALID,194,VALID,0,
2011-12-27, 03:06:04,VALID,998.55,VALID,0,VALID,91.5478,VALID,0,VALID,24.5209,VALID,221,VALID,0.410156,
2011-12-27, 03:07:04,VALID,998.559,VALID,0,VALID,91.2274,VALID,0,VALID,24.5404,VALID,306,VALID,0.485938,
2011-12-27, 03:08:04,VALID,998.561,VALID,0,VALID,90.6933,VALID,0,VALID,24.558,VALID,320,VALID,1.08086,
2011-12-27, 03:09:04,VALID,998.559,VALID,0,VALID,90.0524,VALID,0,VALID,24.638,VALID,254,VALID,1.23945,
2011-12-27, 03:10:04,VALID,998.599,VALID,0,VALID,89.7091,VALID,0,VALID,24.716,VALID,343,VALID,0.957031,
2011-12-27, 03:11:04,VALID,998.59,VALID,0,VALID,89.5031,VALID,0,VALID,24.7551,VALID,359,VALID,0.0191406,
2011-12-27, 03:12:04,VALID,998.608,VALID,0,VALID,89.4497,VALID,0,VALID,24.7337,VALID,341,VALID,0.838672,
2011-12-27, 03:13:04,VALID,998.636,VALID,0,VALID,89.3963,VALID,0,VALID,24.7142,VALID,351,VALID,0.275781,
2011-12-27, 03:14:04,VALID,998.633,VALID,0,VALID,89.5031,VALID,0,VALID,24.7356,VALID,351,VALID,0.385156,
2011-12-27, 03:15:04,VALID,998.63,VALID,0,VALID,89.4573,VALID,0,VALID,24.7142,VALID,345,VALID,0,
2011-12-27, 03:16:04,VALID,998.561,VALID,0,VALID,89.5794,VALID,0,VALID,24.6946,VALID,345,VALID,0,
2011-12-27, 03:17:04,VALID,998.575,VALID,0,VALID,89.7014,VALID,0,VALID,24.6965,VALID,345,VALID,0,
2011-12-27, 03:18:04,VALID,998.551,VALID,0,VALID,89.8922,VALID,0,VALID,24.677,VALID,311,VALID,0.460938,
2011-12-27, 03:19:04,VALID,998.51,VALID,0,VALID,89.793,VALID,0,VALID,24.677,VALID,286,VALID,1.10078,
2011-12-27, 03:20:04,VALID,998.482,VALID,0,VALID,89.3886,VALID,0,VALID,24.716,VALID,277,VALID,1.00312,
2011-12-27, 03:21:04,VALID,998.49,VALID,0,VALID,89.2971,VALID,0,VALID,24.7746,VALID,283,VALID,0.779297,
2011-12-27, 03:22:04,VALID,998.423,VALID,0,VALID,89.3505,VALID,0,VALID,24.7337,VALID,294,VALID,0.267188,
2011-12-27, 03:23:04,VALID,998.391,VALID,0,VALID,89.4039,VALID,0,VALID,24.7142,VALID,294,VALID,0,
2011-12-27, 03:24:04,VALID,998.37,VALID,0,VALID,89.3505,VALID,0,VALID,24.7142,VALID,295,VALID,0.298438,
2011-12-27, 03:25:04,VALID,998.373,VALID,0,VALID,89.381,VALID,0,VALID,24.6946,VALID,295,VALID,0.0277344,
2011-12-27, 03:26:04,VALID,998.35,VALID,0,VALID,89.381,VALID,0,VALID,24.716,VALID,294,VALID,0.3,
2011-12-27, 03:27:04,VALID,998.371,VALID,0,VALID,89.4497,VALID,0,VALID,24.716,VALID,294,VALID,0,
2011-12-27, 03:28:04,VALID,998.403,VALID,0,VALID,89.5717,VALID,0,VALID,24.6556,VALID,199,VALID,0.578125,
2011-12-27, 03:29:04,VALID,998.396,VALID,0,VALID,89.587,VALID,0,VALID,24.6556,VALID,239,VALID,0.456641,
2011-12-27, 03:30:04,VALID,998.383,VALID,0,VALID,89.5107,VALID,0,VALID,24.6965,VALID,213,VALID,0.642187,
2011-12-27, 03:31:04,VALID,998.397,VALID,0,VALID,89.526,VALID,0,VALID,24.6965,VALID,203,VALID,0.182812,
2011-12-27, 03:32:04,VALID,998.391,VALID,0,VALID,89.4802,VALID,0,VALID,24.6965,VALID,198,VALID,0.662891,
2011-12-27, 03:33:04,VALID,998.404,VALID,0,VALID,89.4802,VALID,0,VALID,24.716,VALID,203,VALID,0.933984,
2011-12-27, 03:34:04,VALID,998.396,VALID,0,VALID,89.3581,VALID,0,VALID,24.7356,VALID,209,VALID,0.58125,
2011-12-27, 03:35:04,VALID,998.378,VALID,0,VALID,89.3581,VALID,0,VALID,24.7142,VALID,202,VALID,0.591406,
2011-12-27, 03:36:04,VALID,998.403,VALID,0,VALID,89.1521,VALID,0,VALID,24.7746,VALID,195,VALID,0.735547,
2011-12-27, 03:37:04,VALID,998.371,VALID,0,VALID,89.0606,VALID,0,VALID,24.7727,VALID,217,VALID,0.930859,
2011-12-27, 03:38:04,VALID,998.375,VALID,0,VALID,88.9766,VALID,0,VALID,24.7922,VALID,255,VALID,0.298828,
2011-12-27, 03:39:04,VALID,998.336,VALID,0,VALID,88.8774,VALID,0,VALID,24.8117,VALID,212,VALID,1.01563,
2011-12-27, 03:40:04,VALID,998.347,VALID,0,VALID,88.7935,VALID,0,VALID,24.8117,VALID,254,VALID,0.832422,
2011-12-27, 03:41:04,VALID,998.337,VALID,0,VALID,88.7859,VALID,0,VALID,24.8332,VALID,272,VALID,0.312109,
2011-12-27, 03:42:04,VALID,998.343,VALID,0,VALID,88.8317,VALID,0,VALID,24.8332,VALID,272,VALID,0.1375,
2011-12-27, 03:43:04,VALID,998.312,VALID,0,VALID,88.8393,VALID,0,VALID,24.8117,VALID,265,VALID,0.651172,
2011-12-27, 03:44:04,VALID,998.331,VALID,0,VALID,88.9461,VALID,0,VALID,24.7922,VALID,246,VALID,0.0953125,
2011-12-27, 03:45:04,VALID,998.318,VALID,0,VALID,89.0758,VALID,0,VALID,24.7727,VALID,246,VALID,0.0046875,
2011-12-27, 03:46:04,VALID,998.311,VALID,0,VALID,89.236,VALID,0,VALID,24.7337,VALID,246,VALID,0,
2011-12-27, 03:47:04,VALID,998.328,VALID,0,VALID,89.3963,VALID,0,VALID,24.6946,VALID,246,VALID,0,
2011-12-27, 03:48:04,VALID,998.324,VALID,0,VALID,89.4878,VALID,0,VALID,24.6575,VALID,256,VALID,0.379687,
2011-12-27, 03:49:04,VALID,998.323,VALID,0,VALID,89.4497,VALID,0,VALID,24.677,VALID,264,VALID,1.0457,